IZ0HCD-13 Weather Reports


time (UTC)temp
F
wind
direction
speed
knots
gust
knots
rain 1hr
in
rain 24hr
in
rain mn
in
humidity
%
barometer
mb
20260503215016 62 0.0 0.0 0.00 0.00 0.00 65 1019.5
20260503214016 62 225 0.9 3.5 0.00 0.00 0.00 65 1019.3
20260503213016 62 0.0 1.7 0.00 0.00 0.00 65 1019.3
20260503212017 62 248 0.9 3.5 0.00 0.00 0.00 64 1019.1
20260503211017 63 248 3.5 8.7 0.00 0.00 0.00 64 1019.1
20260503210016 63 248 3.5 11.3 0.00 0.00 0.00 64 1019.0
20260503205017 63 270 3.5 7.0 0.00 0.00 0.00 63 1018.8
20260503204016 64 293 3.5 9.6 0.00 0.00 0.00 63 1018.7
20260503203016 64 248 3.5 7.8 0.00 0.00 0.00 62 1018.6
20260503202016 64 248 2.6 6.1 0.00 0.00 0.00 63 1018.5
20260503201036 64 248 2.6 6.1 0.00 0.00 0.00 63 1018.5
20260503200016 65 248 0.9 4.3 0.00 0.00 0.00 64 1018.5
20260503195016 65 248 0.9 2.6 0.00 0.00 0.00 63 1018.5
20260503194016 66 270 1.7 5.2 0.00 0.00 0.00 62 1018.4
20260503193016 66 248 2.6 6.1 0.00 0.00 0.00 62 1018.3
20260503192016 66 270 4.3 9.6 0.00 0.00 0.00 61 1018.1
20260503191016 67 293 4.3 8.7 0.00 0.00 0.00 60 1017.9
20260503190016 67 248 3.5 8.7 0.00 0.00 0.00 60 1017.9
20260503185016 68 248 4.3 6.1 0.00 0.00 0.00 59 1017.7
20260503184036 68 248 4.3 8.7 0.00 0.00 0.00 58 1017.6
20260503183016 69 248 3.5 9.6 0.00 0.00 0.00 57 1017.5
20260503182116 69 248 1.7 5.2 0.00 0.00 0.00 55 1017.4
20260503181016 70 248 2.6 4.3 0.00 0.00 0.00 54 1017.4
20260503180016 70 248 1.7 5.2 0.00 0.00 0.00 53 1017.4
20260503175016 71 248 1.7 6.1 0.00 0.00 0.00 51 1017.4
20260503174016 72 225 0.9 3.5 0.00 0.00 0.00 50 1017.4
20260503173016 73 225 1.7 6.1 0.00 0.00 0.00 47 1017.3
20260503172016 74 0.0 0.0 0.00 0.00 0.00 45 1017.2
20260503171016 75 225 0.9 4.3 0.00 0.00 0.00 43 1017.2
20260503131037 75 270 1.7 5.2 0.00 0.00 0.00 32 1019.2
20260503081017 63 0.0 1.7 0.00 0.00 0.00 64 1021.5
20260503072017 59 135 1.7 4.3 0.00 0.00 0.00 68 1021.6
20260503071037 59 180 0.9 4.3 0.00 0.00 0.00 67 1021.7
20260503055017 54 0.0 0.9 0.00 0.00 0.00 73 1021.6
20260503054037 53 0.0 0.9 0.00 0.00 0.00 74 1021.5
20260503053017 53 0.0 0.9 0.00 0.00 0.00 73 1021.5
20260503052017 53 0.0 0.0 0.00 0.00 0.00 75 1021.5
20260503051017 51 0.0 0.9 0.00 0.00 0.00 77 1021.4
20260503050037 50 0.0 0.0 0.00 0.00 0.00 79 1021.3
20260503045017 48 0.0 0.0 0.00 0.00 0.00 81 1021.3
20260503044016 48 0.0 0.0 0.00 0.00 0.00 80 1021.2
20260503043037 48 0.0 0.0 0.00 0.00 0.00 80 1021.3
20260503042017 48 0.0 0.0 0.00 0.00 0.00 80 1021.1
20260503041016 48 0.0 0.0 0.00 0.00 0.00 81 1021.1
20260503040016 48 0.0 0.0 0.00 0.00 0.00 80 1021.1
20260503035017 48 0.0 0.0 0.00 0.00 0.00 80 1021.0
20260503034037 48 0.0 0.0 0.00 0.00 0.00 79 1021.1
20260503033117 49 0.0 0.0 0.00 0.00 0.00 78 1021.1
20260503032017 50 0.0 0.0 0.00 0.00 0.00 77 1021.1
20260503031036 50 0.0 0.0 0.00 0.00 0.00 77 1021.0
20260503030016 50 0.0 0.0 0.00 0.00 0.00 77 1021.0
20260503025036 51 0.0 0.0 0.00 0.00 0.00 76 1021.0
20260503024016 51 0.0 0.0 0.00 0.00 0.00 75 1021.1
20260503023036 51 0.0 0.0 0.00 0.00 0.00 75 1021.1
20260503022016 52 248 0.9 1.7 0.00 0.00 0.00 74 1021.2
20260503021056 53 0.0 0.0 0.00 0.00 0.00 72 1021.2
20260503020016 53 0.0 0.0 0.00 0.00 0.00 72 1021.2
20260503015016 53 0.0 0.0 0.00 0.00 0.00 71 1021.1
20260503014036 53 0.0 0.0 0.00 0.00 0.00 70 1021.2
20260503013016 53 0.0 0.0 0.00 0.00 0.00 71 1021.2
20260503012036 53 0.0 0.0 0.00 0.00 0.00 71 1021.4
20260503011016 53 0.0 0.0 0.00 0.00 0.00 70 1021.4
20260503010016 54 0.0 0.0 0.00 0.00 0.00 69 1021.4
20260503005016 54 0.0 0.0 0.00 0.00 0.00 67 1021.5
20260503004016 55 0.0 0.0 0.00 0.00 0.00 67 1021.5
20260503003016 55 0.0 0.0 0.00 0.00 0.00 66 1021.6
20260503002016 55 0.0 0.0 0.00 0.00 0.00 66 1021.5
20260503001016 55 0.0 0.0 0.00 0.00 0.00 66 1021.6
20260503000016 55 0.0 1.7 0.00 0.00 0.00 66 1021.5
20260502235016 54 0.0 0.9 0.00 0.00 0.00 67 1021.6
20260502234016 54 248 1.7 2.6 0.00 0.00 0.00 69 1021.7
20260502233116 54 0.0 1.7 0.00 0.00 0.00 69 1021.8
20260502232018 54 248 0.9 3.5 0.00 0.00 0.00 69 1021.8
20260502231038 54 0.0 0.9 0.00 0.00 0.00 68 1021.7
20260502230037 55 0.0 0.9 0.00 0.00 0.00 67 1021.7
20260502225017 55 0.0 0.0 0.00 0.00 0.00 67 1021.7
20260502224017 55 0.0 0.0 0.00 0.00 0.00 66 1021.7
20260502223018 56 0.0 0.0 0.00 0.00 0.00 65 1021.8
20260502222017 55 0.0 0.0 0.00 0.00 0.00 65 1021.8
20260502221017 55 248 0.9 1.7 0.00 0.00 0.00 65 1021.8
20260502220017 57 248 0.9 1.7 0.00 0.00 0.00 62 1021.7